TimeEDT,TemperatureF,Dew PointF,Humidity,Sea Level PressureIn,VisibilityMPH,Wind Direction,Wind SpeedMPH,Gust SpeedMPH,PrecipitationIn,Events,Conditions,WindDirDegrees,DateUTC
12:54 AM,54.0,51.1,90,30.07,10.0,Calm,Calm,-,N/A,,Clear,0,2013-10-11 04:54:00
1:54 AM,52.0,50.0,93,30.07,9.0,Calm,Calm,-,N/A,,Clear,0,2013-10-11 05:54:00
2:54 AM,51.1,50.0,96,30.07,9.0,Calm,Calm,-,N/A,,Clear,0,2013-10-11 06:54:00
3:54 AM,48.9,48.0,97,30.06,9.0,Calm,Calm,-,N/A,,Clear,0,2013-10-11 07:54:00
4:54 AM,48.0,46.9,96,30.07,8.0,East,3.5,-,N/A,,Clear,80,2013-10-11 08:54:00
5:54 AM,48.0,46.9,96,30.08,9.0,Calm,Calm,-,N/A,,Clear,0,2013-10-11 09:54:00
6:54 AM,46.9,46.0,97,30.11,7.0,Calm,Calm,-,N/A,,Clear,0,2013-10-11 10:54:00
7:54 AM,46.0,45.0,96,30.12,5.0,Calm,Calm,-,N/A,,Clear,0,2013-10-11 11:54:00
8:54 AM,48.0,46.9,96,30.12,7.0,ENE,3.5,-,N/A,,Clear,70,2013-10-11 12:54:00
9:54 AM,55.0,50.0,83,30.11,10.0,East,3.5,-,N/A,,Clear,100,2013-10-11 13:54:00
10:54 AM,61.0,51.1,70,30.09,10.0,East,3.5,-,N/A,,Clear,90,2013-10-11 14:54:00
11:54 AM,66.9,54.0,63,30.09,10.0,Calm,Calm,-,N/A,,Clear,0,2013-10-11 15:54:00
12:54 PM,71.1,51.1,49,30.08,10.0,NE,3.5,-,N/A,,Clear,50,2013-10-11 16:54:00
1:54 PM,73.0,48.9,42,30.06,10.0,ESE,4.6,-,N/A,,Clear,110,2013-10-11 17:54:00
2:54 PM,73.9,48.0,40,30.03,10.0,East,9.2,-,N/A,,Clear,100,2013-10-11 18:54:00
3:54 PM,75.0,46.0,36,30.02,10.0,ESE,9.2,-,N/A,,Clear,110,2013-10-11 19:54:00
4:54 PM,75.9,45.0,33,30.01,10.0,Variable,3.5,-,N/A,,Clear,0,2013-10-11 20:54:00
5:54 PM,75.0,44.1,33,30.00,10.0,South,6.9,-,N/A,,Clear,170,2013-10-11 21:54:00
6:54 PM,71.1,46.0,41,30.00,10.0,SSE,3.5,-,N/A,,Clear,160,2013-10-11 22:54:00
7:54 PM,60.1,50.0,69,30.00,10.0,Calm,Calm,-,N/A,,Clear,0,2013-10-11 23:54:00
8:54 PM,60.1,48.0,64,30.01,10.0,Calm,Calm,-,N/A,,Clear,0,2013-10-12 00:54:00
9:54 PM,55.0,48.0,77,30.02,10.0,Calm,Calm,-,N/A,,Clear,0,2013-10-12 01:54:00
10:54 PM,54.0,48.0,80,30.02,10.0,Calm,Calm,-,N/A,,Clear,0,2013-10-12 02:54:00
11:54 PM,53.1,48.0,83,30.03,10.0,Calm,Calm,-,N/A,,Clear,0,2013-10-12 03:54:00